�������r�C�����j�^�v���󋵏��
Date,Time,5�C6���@���p�r�C��,����,����(m/s)
2021/09/29,00:00,4.0,�k��,2.9
2021/09/29,00:10,3.8,�k��,2.9
2021/09/29,00:20,3.9,�k��,2.9
2021/09/29,00:30,3.9,�k��,2.9
2021/09/29,00:40,4.0,�k��,2.9
2021/09/29,00:50,3.9,�k��,2.9
2021/09/29,01:00,3.7,�k��,2.9
2021/09/29,01:10,4.0,�k��,2.9
2021/09/29,01:20,3.9,�k��,2.9
2021/09/29,01:30,3.9,�k��,2.9
2021/09/29,01:40,3.9,�k��,2.9
2021/09/29,01:50,4.0,�k��,2.9
2021/09/29,02:00,3.9,�k��,2.9
2021/09/29,02:10,4.0,�k��,2.9
2021/09/29,02:20,3.8,�k��,2.9
2021/09/29,02:30,3.9,�k��,2.9
2021/09/29,02:40,3.9,�k��,2.9
2021/09/29,02:50,3.8,�k��,2.9
2021/09/29,03:00,4.0,�k��,2.9
2021/09/29,03:10,3.8,�k��,2.9
2021/09/29,03:20,4.0,�k��,2.9
2021/09/29,03:30,4.0,�k��,2.9
2021/09/29,03:40,4.0,�k��,2.9
2021/09/29,03:50,3.8,�k��,2.9
2021/09/29,04:00,3.8,�k��,2.9
2021/09/29,04:10,3.7,�k��,2.9
2021/09/29,04:20,4.0,�k��,2.9
2021/09/29,04:30,3.9,�k��,2.9
2021/09/29,04:40,3.7,�k��,2.9
2021/09/29,04:50,3.8,�k��,2.9
2021/09/29,05:00,3.8,�k��,2.9
2021/09/29,05:10,3.8,�k��,2.9
2021/09/29,05:20,3.9,�k��,2.9
2021/09/29,05:30,4.0,�k��,2.9
2021/09/29,05:40,4.0,�k��,2.9
2021/09/29,05:50,3.9,�k��,2.9
2021/09/29,06:00,4.0,�k��,2.9
2021/09/29,06:10,3.8,�k��,2.9
2021/09/29,06:20,3.9,�k��,2.9
2021/09/29,06:30,4.0,�k��,2.9
2021/09/29,06:40,3.9,�k��,2.9
2021/09/29,06:50,3.9,�k��,2.9
2021/09/29,07:00,3.9,�k��,2.9
2021/09/29,07:10,4.0,�k��,2.9
2021/09/29,07:20,4.0,�k��,2.9
2021/09/29,07:30,3.8,�k��,2.9
2021/09/29,07:40,3.9,�k��,2.9
2021/09/29,07:50,3.9,�k��,2.9
2021/09/29,08:00,3.8,�k��,2.9
2021/09/29,08:10,4.0,�k��,2.9
2021/09/29,08:20,4.2,�k��,2.9
2021/09/29,08:30,3.8,�k��,2.9
2021/09/29,08:40,3.8,�k��,2.9
2021/09/29,08:50,3.9,�k��,2.9
2021/09/29,09:00,3.8,�k��,2.9
2021/09/29,09:10,4.1,�k��,2.9
2021/09/29,09:20,3.7,�k��,2.9
2021/09/29,09:30,3.8,�k��,2.9
2021/09/29,09:40,3.9,�k��,2.9
2021/09/29,09:50,4.0,�k��,2.9
2021/09/29,10:00,3.8,�k��,2.9
2021/09/29,10:10,3.8,�k��,2.9
2021/09/29,10:20,3.9,�k��,2.9
2021/09/29,10:30,3.9,�k��,2.9
2021/09/29,10:40,3.8,�k��,2.9
2021/09/29,10:50,3.8,�k��,2.9
2021/09/29,11:00,3.9,�k��,2.9
2021/09/29,11:10,3.9,�k��,2.9
2021/09/29,11:20,3.8,�k��,2.9
2021/09/29,11:30,3.8,�k��,2.9
2021/09/29,11:40,3.9,�k��,2.9
2021/09/29,11:50,3.9,�k��,2.9
2021/09/29,12:00,3.8,-,-
2021/09/29,12:10,3.9,-,-
2021/09/29,12:20,4.0,-,-
2021/09/29,12:30,3.8,-,-
2021/09/29,12:40,4.0,-,-
2021/09/29,12:50,3.8,-,-
2021/09/29,13:00,4.0,-,-
2021/09/29,13:10,3.9,-,-
2021/09/29,13:20,4.0,-,-
2021/09/29,13:30,4.0,-,-
2021/09/29,13:40,4.0,-,-
2021/09/29,13:50,4.0,-,-
2021/09/29,14:00,3.8,-,-
2021/09/29,14:10,3.9,-,-
2021/09/29,14:20,3.9,-,-
2021/09/29,14:30,4.1,-,-
2021/09/29,14:40,3.9,�쓌,5.0
2021/09/29,14:50,3.9,��쓌,5.8
2021/09/29,15:00,3.7,��쓌,6.7
2021/09/29,15:10,4.0,��쓌,6.4
2021/09/29,15:20,3.7,��쓌,6.1
2021/09/29,15:30,4.0,��쓌,5.8
2021/09/29,15:40,3.9,��쓌,5.8
2021/09/29,15:50,3.8,��쓌,6.3
2021/09/29,16:00,3.9,��쓌,6.7
2021/09/29,16:10,3.9,��쓌,6.0
2021/09/29,16:20,3.9,��쓌,7.1
2021/09/29,16:30,3.7,��쓌,5.2
2021/09/29,16:40,3.9,��,5.5
2021/09/29,16:50,3.9,��쓌,6.4
2021/09/29,17:00,4.0,��,5.6
2021/09/29,17:10,3.9,��,7.0
2021/09/29,17:20,3.8,��쓌,7.2
2021/09/29,17:30,3.9,��쓌,6.1
2021/09/29,17:40,3.9,��,6.5
2021/09/29,17:50,3.9,��,5.9
2021/09/29,18:00,3.9,��,5.3
2021/09/29,18:10,3.9,��,6.0
2021/09/29,18:20,3.9,��,5.3
2021/09/29,18:30,4.0,��,5.8
2021/09/29,18:40,3.9,��,5.8
2021/09/29,18:50,3.8,��,6.1
2021/09/29,19:00,3.9,��쐼,5.6
2021/09/29,19:10,3.8,��쐼,6.0
2021/09/29,19:20,3.7,��쐼,5.2
2021/09/29,19:30,3.9,��쐼,5.2
2021/09/29,19:40,3.7,��쐼,5.6
2021/09/29,19:50,3.8,��쐼,5.1
2021/09/29,20:00,3.9,��,4.8
2021/09/29,20:10,3.9,��쐼,4.2
2021/09/29,20:20,3.9,��쐼,3.9
2021/09/29,20:30,3.8,��쐼,4.1
2021/09/29,20:40,3.9,��쐼,5.1
2021/09/29,20:50,3.9,��,5.2
2021/09/29,21:00,3.9,��,4.5
2021/09/29,21:10,4.0,��,4.2
2021/09/29,21:20,3.9,��,4.8
2021/09/29,21:30,3.8,��,4.7
2021/09/29,21:40,3.8,��,3.3
2021/09/29,21:50,3.9,��쐼,3.4
2021/09/29,22:00,3.8,��쐼,4.2
2021/09/29,22:10,3.9,��쐼,4.9
2021/09/29,22:20,3.9,��,5.2
2021/09/29,22:30,3.9,��쐼,5.4
2021/09/29,22:40,3.9,��쐼,5.3
2021/09/29,22:50,4.0,��쐼,5.7
2021/09/29,23:00,3.7,��,5.7
2021/09/29,23:10,3.7,��,6.5
2021/09/29,23:20,4.0,��쐼,6.3
2021/09/29,23:30,3.9,��쐼,7.0
2021/09/29,23:40,3.9,��쐼,6.7
2021/09/29,23:50,3.9,��,7.6
